Regional Weather Roundup
Issued by NWS

Home | Current Version | Previous Version | Text Only | Print | Product List | Glossary Off
Versions: 1 2 3 4 5 6 7 8 9 10 11 12 13 14 15 16 17 18 19 20 21 22 23 24 25 26 27 28 29 30 31 32 33 34 35 36 37 38 39 40 41 42 43 44 45 46 47 48 49 50

000
ASUS43 KIND 221209
RWRIN

WEATHER ROUNDUP FOR INDIANA
NATIONAL WEATHER SERVICE INDIANAPOLIS IN
800 AM EDT FRI AUG 22 2014

NOTE: "FAIR" INDICATES FEW OR NO CLOUDS BELOW 12,000 FEET WITH NO
SIGNIFICANT WEATHER AND/OR OBSTRUCTIONS TO VISIBILITY.

* - STATION DOES NOT REPORT WEATHER SUCH AS PRECIPITATION OR FOG.

+ - STATION NOT QUALITY CONTROLLED BY THE NATIONAL WEATHER SERVICE.
    USE DATA WITH CAUTION...ESPECIALLY DEWPOINT AND RELATIVE
    HUMIDITY OBSERVATIONS.

INZ001>003-010>013-019-020-221300-
NORTHWEST INDIANA

CITY           SKY/WX    TMP DP  RH WIND       PRES   REMARKS
GARY /AIRPORT/ MOCLDY    73  72  94 S5        29.95R
KNOX *+        CLOUDY    69  67  93 S3        29.96R
LA PORTE +     CLOUDY   N/A N/A N/A CALM      29.96S HAZE
                                      6HR PCP:  0.11;

MICHIGAN CITY+ MOCLDY    70  70 100 CALM      29.95S
MONTICELLO +   HVY RAIN  71  71  99 SE6       29.96F
RENSSELAER +   LGT RAIN  70  70 100 CALM      29.97R
VALPARAISO     CLOUDY    71  69  93 S3        29.96R
6HR MIN TEMP:  70; 6HR MAX TEMP:  72; 6HR PCP:  3.11;


$$

LMZ046-743>745-221300-
SOUTHERN LAKE MICHIGAN

STATION/POSITION TIME  TEMP WIND        PRES
                       AIR  DIR/SP/G
                 (UTC) (F)  (DEG/KT/KT) (MB)
MICHIGAN CITY    1200   74  160/  6/  8   N/A

$$

INZ004-005-014>016-021>024-221300-
NORTH CENTRAL INDIANA

CITY           SKY/WX    TMP DP  RH WIND       PRES   REMARKS
ELKHART        PTSUNNY   72  72 100 CALM      29.97R FOG
GOSHEN         CLOUDY    72  70  93 S5        29.97R
6HR MIN TEMP:  71; 6HR MAX TEMP:  73; 6HR PCP:  0.05;

LOGANSPORT +   HVY RAIN  70  68  94 S10       29.99F
PERU/GRISSOM   LGT RAIN  70  70 100 S7        30.01F
6HR MIN TEMP:  70; 6HR MAX TEMP:  72; 6HR PCP:  0.82;

ROCHESTER +    CLOUDY    72  72 100 S5        30.00R
SOUTH BEND     CLOUDY    72  69  90 CALM      29.97R
6HR MIN TEMP:  72; 6HR MAX TEMP:  73; 6HR PCP:  0.01;


$$

INZ006>009-017-018-025>027-221300-
NORTHEAST INDIANA

CITY           SKY/WX    TMP DP  RH WIND       PRES   REMARKS
ANGOLA *+      CLOUDY    70  63  78 CALM      29.98R
AUBURN +       CLOUDY    70  68  94 CALM      30.00R FOG
FORT WAYNE     LGT RAIN  70  69  97 S7        29.98S
6HR MIN TEMP:  68; 6HR MAX TEMP:  71; 6HR PCP:  1.96;

HUNTINGTON +   DRIZZLE   69  69  98 S6        29.98S
6HR MIN TEMP:  68; 6HR MAX TEMP:  73; 6HR PCP:  1.81;


$$

INZ028-029-035-036-043>045-051>053-221300-
WEST CENTRAL INDIANA

CITY           SKY/WX    TMP DP  RH WIND       PRES   REMARKS
GREENCASTLE +  CLOUDY    73  72  94 CALM      30.00R
LAFAYETTE      LGT RAIN  71  70  96 CALM      29.99R
6HR MIN TEMP:  70; 6HR MAX TEMP:  76; 6HR PCP:  0.44;

TERRE HAUTE    CLOUDY    76  72  87 W8        29.98R
6HR MIN TEMP:  75; 6HR MAX TEMP:  78;


$$

INZ030>032-037>040-046>048-054>057-064-065-221300-
CENTRAL INDIANA

CITY           SKY/WX    TMP DP  RH WIND       PRES   REMARKS
CP ATTERBURY + CLOUDY    73  70  88 SW3       29.98R
FRANKFORT +    TSTM     N/A N/A N/A NW7       30.02R
GREENWOOD *+   CLOUDY    77  75  94 W5        30.00
INDIANAPOLIS   CLOUDY    75  72  90 NW10      29.99R
6HR MIN TEMP:  73; 6HR MAX TEMP:  76; 6HR PCP: TRACE;

-EAGLE CREEK   CLOUDY    75  71  87 N7        29.99R
6HR MIN TEMP:  72; 6HR MAX TEMP:  75; 6HR PCP: TRACE;

KOKOMO *+      CLOUDY    72  70  94 N6        30.02R THUNDER
MARION +       LGT RAIN  69  68  96 S5        30.02R
MT COMFORT *+  CLOUDY    73 N/A N/A N9        30.01R
SHELBYVILLE    CLOUDY    75  50  41 S8        29.97R
6HR MIN TEMP:  73; 6HR MAX TEMP:  76; 6HR PCP: TRACE;

ZIONSVILLE +   CLOUDY    72  68  86 CALM      30.00F
6HR MIN TEMP:  72; 6HR MAX TEMP:  76; 6HR PCP:  0.03;


$$

INZ033-034-041-042-049-050-058-059-221300-
EAST CENTRAL INDIANA

CITY           SKY/WX    TMP DP  RH WIND       PRES   REMARKS
MUNCIE         TSTM      70  68  93 S3        30.03R FOG
6HR MIN TEMP:  70; 6HR MAX TEMP:  72; 6HR PCP:  0.96;


$$

INZ060-061-067>069-081>083-085>088-221300-
SOUTHWEST INDIANA

CITY           SKY/WX    TMP DP  RH WIND       PRES   REMARKS
EVANSVILLE     PTCLDY    76  73  91 SW5       30.01R
6HR MIN TEMP:  75; 6HR MAX TEMP:  79;

WASHINGTON +   CLOUDY    76  73  91 SW7       29.98R
6HR MIN TEMP:  76; 6HR MAX TEMP:  77;


$$

INZ062-063-066-070>080-084-089>092-221300-
SOUTH CENTRAL AND SOUTHEAST INDIANA

CITY           SKY/WX    TMP DP  RH WIND       PRES   REMARKS
BEDFORD +      PTCLDY    75  70  83 S5        30.00
BLOOMINGTON    MOCLDY    76  72  87 W9        29.99R
6HR MIN TEMP:  75; 6HR MAX TEMP:  78;


$$



USA.gov is the U.S. government's official web portal to all federal, state and local government web resources and services.